• Processing (Info)

  • MPEC 2016-T133: 2016 TR55

    The following Minor Planet Electronic Circular may be linked-to from your own Web pages, but must not otherwise be redistributed electronically.

    A form allowing access to any MPEC is at the bottom of this page.


    Read MPEC 2016-T132 Read MPEC 2016-T134


    M.P.E.C. 2016-T133                               Issued 2016 Oct. 12, 15:45 UT
    
         The Minor Planet Electronic Circulars contain information on unusual
             minor planets and routine data on comets.  They are published
        on behalf of Division F of the International Astronomical Union by the
              Minor Planet Center, Smithsonian Astrophysical Observatory,
                              Cambridge, MA 02138, U.S.A.
    
                 Prepared using the Tamkin Foundation Computer Network
    
                                  MPC@CFA.HARVARD.EDU
                URL https://www.minorplanetcenter.net/    ISSN 1523-6714
    
                                       2016 TR55
    
    Observations:
         K16T55R* C2016 10 09.28355 00 27 24.18 +07 40 33.4          20.7 VqET133G96
         K16T55R  C2016 10 09.28917 00 27 23.40 +07 40 36.4          20.8 VqET133G96
         K16T55R  C2016 10 09.29484 00 27 22.67 +07 40 38.9          20.4 VqET133G96
         K16T55R  C2016 10 09.30051 00 27 21.94 +07 40 42.6          21.1 VqET133G96
         K16T55R  C2016 10 09.39491 00 27 09.72 +07 41 29.8          20.5 VqET133G96
         K16T55R  C2016 10 09.39886 00 27 09.21 +07 41 31.7                qET133G96
         K16T55R  C2016 10 09.40281 00 27 08.71 +07 41 34.0                qET133G96
         K16T55R  C2016 10 10.27326 00 25 28.66 +07 48 59.5          21.2 VqET133G96
         K16T55R  C2016 10 10.27508 00 25 28.44 +07 49 00.4          20.6 VqET133G96
         K16T55R  C2016 10 10.27717 00 25 28.14 +07 49 01.8          20.9 VqET133G96
         K16T55R  C2016 10 10.27895 00 25 27.94 +07 49 02.6          20.5 VqET133G96
         K16T55R  C2016 10 11.28334 00 23 34.45 +07 57 22.2          21.5 RoET133926
         K16T55R  C2016 10 11.29672 00 23 32.81 +07 57 28.9          21.1 RoET133926
         K16T55R  C2016 10 11.30850 00 23 31.37 +07 57 34.6          21.2 RoET133926
         K16T55R  C2016 10 12.23890 00 21 50.91 +08 05 03.1          21.1 RoET133926
         K16T55R  C2016 10 12.25014 00 21 49.55 +08 05 08.9          21.6 RoET133926
         K16T55R  C2016 10 12.26387 00 21 47.91 +08 05 15.7          21.9 RoET133926
    
    Observer details:
    926 Tenagra II Observatory.  Observers M. Schwartz, P. R. Holvorcem.  Measurer
        M. Schwartz.  0.81-m f/7 Ritchey-Chretien + CCD.
    G96 Mt. Lemmon Survey.  Observers G. J. Leonard, R. G. Matheny.  Measurers
        E. J. Christensen, D. C. Fuls, A. R. Gibbs, A. D. Grauer, J. A. Johnson,
        R. A. Kowalski, S. M. Larson, G. J. Leonard, R. G. Matheny, R. L. Seaman,
        F. C. Shelly.  1.5-m reflector + 10K CCD.
    
    Orbital elements:
    2016 TR55                                                Earth MOID = 0.1440 AU
    Epoch 2016 July 31.0 TT = JDT 2457600.5                 MPC
    M  31.96215              (2000.0)            P               Q
    n   0.70174995     Peri.  273.63068     +0.17729047     +0.98408211
    a   1.2541451      Node     6.61933     -0.85542839     +0.16025184
    e   0.1160508      Incl.    6.10896     -0.48663165     +0.07682279
    P   1.40           H   23.1           G   0.15           U   8
    Residuals in seconds of arc
    161009 G96  0.3+  0.1+    161009 G96  0.0   0.1+    161011 926  0.1-  0.2+
    161009 G96  0.3-  0.2+    161010 G96  0.0   0.3-    161011 926  0.1+  0.2+
    161009 G96  0.1-  0.2-    161010 G96  0.2+  0.3-    161012 926  0.3+  0.4-
    161009 G96  0.0   0.5+    161010 G96  0.3-  0.0     161012 926  0.1-  0.0
    161009 G96  0.1+  0.2-    161010 G96  0.1+  0.1-    161012 926  0.1-  0.3+
    161009 G96  0.0   0.2-    161011 926  0.2-  0.0
    
    Ephemeris:
    2016 TR55                a,e,i = 1.25, 0.12, 6                   q = 1.1086
    Date    TT    R. A. (2000) Decl.     Delta      r     Elong.  Phase     V
    2016 09 12    01 27 37.3 +01 58 12   0.2223  1.2004   147.8    26.5    21.4
    ...
    2016 09 27    00 55 01.3 +05 32 35   0.2278  1.2268   169.3     8.7    20.9
    ...
    2016 10 05    00 36 23.8 +07 01 13   0.2414  1.2412   177.0     2.4    20.7
    ...
    2016 10 11    00 24 06.3 +07 55 16   0.2570  1.2519   169.6     8.3    21.2
    2016 10 12    00 22 16.3 +08 03 22   0.2601  1.2537   168.2     9.3    21.3
    2016 10 13    00 20 30.5 +08 11 15   0.2632  1.2555   166.9    10.4    21.4
    ...
    2016 10 19    00 11 28.2 +08 54 18   0.2846  1.2661   159.2    16.2    21.8
    ...
    2016 10 27    00 03 43.6 +09 43 47   0.3193  1.2800   149.9    22.9    22.2
    ...
    2016 11 11    00 01 54.6 +11 11 10   0.4003  1.3050   135.2    32.3    23.1
    
    A. U. Tomatic                (C) Copyright 2016 MPC           M.P.E.C. 2016-T133
    

    Read MPEC 2016-T132 Read MPEC 2016-T134


    MPEC number:

    Enter an MPEC number in one of the following forms:

    • 1997-B01 (the full form)
    • J97B01 (the packed version of the full form)
    • B01 (the abbreviated form)